Fort Knox, KY

10:25 AM EST on February 25, 2017 (GMT -0500)
Godman Army Air Field

Weather History for KFTK - October, 2011

Change the Weather History Date:

Saturday, October 22, 2011

  Actual Average Record
Temperature  
Mean Temperature 48 °F -  
Max Temperature 64 °F 64 °F 80 °F (2012)
Min Temperature 34 °F 44 °F 26 °F (1997)
Degree Days  
Heating Degree Days 16    
Moisture  
Dew Point 39 °F    
Average Humidity 71    
Maximum Humidity 99    
Minimum Humidity 38    
Precipitation  
Precipitation 0.00 in - - ()
Sea Level Pressure  
Sea Level Pressure 30.15 in    
Wind  
Wind Speed 2 mph (West)    
Max Wind Speed 10 mph    
Max Gust Speed -    
Visibility 10 miles    
Events      
Averages and records for this station are not official NWS values.
T = Trace of Precipitation, MM = Missing Value Source: NWS Daily Summary

Daily Weather History Graph

Daily Weather History Graph

Search for Another Location

Airport or City:

Trip Planner

Search our weather history database for the weather conditions in past years. The results will help you decide how hot, cold, wet, or windy it might be!

Date:

Astronomy

Oct. 22, 2011 Rise Set
Actual Time 7:58 AM EDT 6:57 PM EDT
Civil Twilight 7:32 AM EDT 7:23 PM EDT
Nautical Twilight 7:01 AM EDT 7:54 PM EDT
Astronomical Twilight 6:31 AM EDT 8:25 PM EDT
Moon 3:00 AM EDT (10/22) 4:10 PM EDT (10/22)
Length of Visible Light 11h 51m
Length of Day
10h 58m
Waning Crescent, 24% of the Moon is Illuminated
Oct 22
Waning Crescent
Oct 26
New
Nov 2
First Quarter
Nov 10
Full
Nov 18
Last Quarter

Hourly Weather History & Observations

Time (EDT) Temp. Windchill Dew Point Humidity Pressure Visibility Wind Dir Wind Speed Gust Speed Precip Events Conditions
12:55 AM 39.7 °F - 37.8 °F 93% 30.15 in 10.0 mi Calm Calm - N/A   Clear
1:55 AM 38.1 °F - 37.9 °F 99% 30.15 in 10.0 mi Calm Calm - N/A   Clear
3:55 AM 36.7 °F - 36.5 °F 99% 30.16 in 10.0 mi Calm Calm - N/A   Clear
4:55 AM 34.7 °F - 34.5 °F 99% 30.16 in 10.0 mi Calm Calm - N/A   Clear
5:55 AM 36.7 °F - 36.3 °F 99% 30.17 in 10.0 mi Calm Calm - N/A   Clear
6:55 AM 35.2 °F 32.4 °F 35.1 °F 99% 30.18 in 10.0 mi SW 3.5 mph - N/A   Clear
7:55 AM 35.2 °F - 35.1 °F 99% 30.19 in 10.0 mi Calm Calm - N/A   Clear
8:55 AM 36.3 °F - 36.0 °F 99% 30.20 in 10.0 mi Calm Calm - N/A   Clear
10:55 AM 52.0 °F - 41.5 °F 68% 30.20 in 10.0 mi Calm Calm - N/A   Clear
11:55 AM 57.6 °F - 42.1 °F 56% 30.19 in 10.0 mi SW 5.8 mph - N/A   Clear
12:55 PM 59.9 °F - 39.2 °F 46% 30.17 in 10.0 mi WSW 3.5 mph - N/A   Clear
1:55 PM 61.5 °F - 39.2 °F 44% 30.14 in 10.0 mi West 10.4 mph - N/A   Clear
2:55 PM 62.4 °F - 38.5 °F 41% 30.13 in 10.0 mi West 6.9 mph - N/A   Clear
3:55 PM 63.7 °F - 37.8 °F 38% 30.12 in 10.0 mi West 9.2 mph - N/A   Clear
4:55 PM 63.5 °F - 38.8 °F 40% 30.11 in 10.0 mi West 6.9 mph - N/A   Clear
5:55 PM 63.0 °F - 38.5 °F 40% 30.11 in 10.0 mi West 4.6 mph - N/A   Clear
6:55 PM 61.0 °F - 38.5 °F 43% 30.11 in 10.0 mi Calm Calm - N/A   Clear
7:55 PM 53.4 °F - 41.2 °F 63% 30.12 in 10.0 mi Calm Calm - N/A   Clear
8:55 PM 50.7 °F - 41.2 °F 70% 30.12 in 10.0 mi Calm Calm - N/A   Clear
9:55 PM 49.3 °F - 40.8 °F 73% 30.12 in 10.0 mi Calm Calm - N/A   Clear
10:55 PM 46.6 °F - 40.1 °F 78% 30.12 in 10.0 mi Calm Calm - N/A   Clear
11:55 PM 46.4 °F - 40.8 °F 81% 30.10 in 10.0 mi Calm Calm - N/A   Clear